sat.trackr.live / text

‹ back to catalog

STARLINK-31852

NORAD 59841 · 2024-097G

PAYLOAD ACTIVE UNKNOWN

§ Identity

Operator
Country
US
Launch date
2024-05-23
Launch site
AFETR
Launch vehicle
Mass (kg)
RCS (m²)

Purposes: comms

External: N2YO · Heavens-Above · Gunter

§ Orbital elements

Epoch: 2026-09-21T09:00:24.471072Z

Period
94.27 min
Inclination
43.0013°
Eccentricity
0.0001003
Mean motion
15.27570102 rev/d
Perigee alt
482.4 km
Apogee alt
483.8 km
Semi-major
6,861.2 km
B*
8.6478e-5
RAAN
241.5055°
Arg perigee
261.1679°
Mean anomaly
98.9059°
Rev number
13,193

§ Raw data

STARLINK-318521 59841U 24097G   26264.37528323  .00002118  00000+0  86478-4 0  99902 59841  43.0013 241.5055 0001003 261.1679  98.9059 15.27570102131935

JSON: /api/v1/satellites/59841 · /tle

For live sub-satellite position, see the globe view (requires WebGL).

§ Visibility from observer

Set your observer location to see the next 7 days of passes ≥ 10°. The values pass through the URL so the page stays shareable.

No JS? Fill the form by hand. The geolocation button needs JavaScript.